User: anonymous   Login
Location: Springfield
(37.2150°N, 93.2980°W)
Time: 17:09:18
(UTC-05:00)
Language:

Cosmos 1869 - Orbit

View from above orbital plane
View from above orbital plane
View from above satellite
View from above satellite

Ground track
Ground track

The orbit data is extracted from the following two-line orbital elements,

1 18214U 87062A   19295.21054570  .00000623  00000-0  38375-4 0  9990
2 18214  82.5057 337.8157 0014060 184.0297 176.0821 15.08155953757658
Epoch (UTC): 22 October 2019 05:03:11
Eccentricity: 0.0014060
inclination: 82.5057°
perigee height: 532 km
apogee height: 551 km
right ascension of ascending node: 337.8157°
argument of perigee: 184.0297°
revolutions per day: 15.08155953
mean anomaly at epoch: 176.0821°
orbit number at epoch: 75765

The dashed part of the orbit path shows where the satellite is in the earth's shadow,  

DLR